Time,TemperatureF,DewpointF,PressureIn,WindDirection,WindDirectionDegrees,WindSpeedMPH,WindSpeedGustMPH,Humidity,HourlyPrecipIn,Conditions,Clouds,dailyrainin,SoftwareType,DateUTC
2013-12-31 00:01:00,27.0,17.2,30.34,NW,311,0.0,0.0,66,0.00,,---,0.00,VWS V14.00,2013-12-31 06:01:00,
2013-12-31 00:07:00,26.9,17.4,30.34,NW,311,0.0,0.0,67,0.00,,---,0.00,VWS V14.00,2013-12-31 06:07:00,
2013-12-31 00:12:00,26.7,17.2,30.33,NW,311,0.0,0.0,67,0.00,,---,0.00,VWS V14.00,2013-12-31 06:12:00,
2013-12-31 00:18:00,26.5,17.4,30.33,NW,311,0.0,0.0,68,0.00,,---,0.00,VWS V14.00,2013-12-31 06:18:00,
2013-12-31 00:23:00,26.4,17.6,30.33,NW,311,0.0,0.0,69,0.00,,---,0.00,VWS V14.00,2013-12-31 06:23:00,
2013-12-31 00:28:00,26.3,17.5,30.33,NW,311,0.0,0.0,69,0.00,,---,0.00,VWS V14.00,2013-12-31 06:28:00,
2013-12-31 00:33:00,26.2,17.4,30.33,NW,311,0.0,0.0,69,0.00,,---,0.00,VWS V14.00,2013-12-31 06:33:00,
2013-12-31 00:39:00,26.1,17.3,30.33,NW,311,0.0,0.0,69,0.00,,---,0.00,VWS V14.00,2013-12-31 06:39:00,
2013-12-31 00:44:00,26.0,17.6,30.33,NW,311,0.0,0.0,70,0.00,,---,0.00,VWS V14.00,2013-12-31 06:44:00,
2013-12-31 00:49:00,25.9,17.5,30.33,NW,311,0.0,0.0,70,0.00,,---,0.00,VWS V14.00,2013-12-31 06:49:00,
2013-12-31 00:54:00,25.7,17.6,30.33,NW,311,0.0,0.0,71,0.00,,---,0.00,VWS V14.00,2013-12-31 06:54:00,
2013-12-31 01:00:00,25.6,17.5,30.32,NW,311,0.0,0.0,71,0.00,,---,0.00,VWS V14.00,2013-12-31 07:00:00,
2013-12-31 01:05:00,25.5,17.4,30.32,NW,311,0.0,0.0,71,0.00,,---,0.00,VWS V14.00,2013-12-31 07:05:00,
2013-12-31 01:10:00,25.4,17.6,30.32,NW,311,0.0,0.0,72,0.00,,---,0.00,VWS V14.00,2013-12-31 07:10:00,
2013-12-31 01:15:00,25.3,17.9,30.32,NW,311,0.0,0.0,73,0.00,,---,0.00,VWS V14.00,2013-12-31 07:15:00,
2013-12-31 01:20:00,25.2,17.5,30.32,NW,311,0.0,0.0,72,0.00,,---,0.00,VWS V14.00,2013-12-31 07:20:00,
2013-12-31 01:25:00,25.1,17.4,30.32,NW,311,0.0,0.0,72,0.00,,---,0.00,VWS V14.00,2013-12-31 07:25:00,
2013-12-31 01:30:00,25.1,17.7,30.31,NW,311,0.0,0.0,73,0.00,,---,0.00,VWS V14.00,2013-12-31 07:30:00,
2013-12-31 01:35:00,25.0,17.6,30.31,NW,311,0.0,0.0,73,0.00,,---,0.00,VWS V14.00,2013-12-31 07:35:00,
2013-12-31 01:40:00,24.9,17.5,30.31,NW,311,0.0,0.0,73,0.00,,---,0.00,VWS V14.00,2013-12-31 07:40:00,
2013-12-31 01:45:00,24.8,17.7,30.31,NW,311,0.0,0.0,74,0.00,,---,0.00,VWS V14.00,2013-12-31 07:45:00,
2013-12-31 01:50:00,24.7,17.6,30.31,NW,311,0.0,0.0,74,0.00,,---,0.00,VWS V14.00,2013-12-31 07:50:00,
2013-12-31 01:55:00,24.7,17.6,30.31,NW,311,0.0,0.0,74,0.00,,---,0.00,VWS V14.00,2013-12-31 07:55:00,
2013-12-31 02:00:00,24.6,17.8,30.31,NW,311,0.0,0.0,75,0.00,,---,0.00,VWS V14.00,2013-12-31 08:00:00,
2013-12-31 02:05:00,24.6,17.8,30.31,NW,311,0.0,0.0,75,0.00,,---,0.00,VWS V14.00,2013-12-31 08:05:00,
2013-12-31 02:10:00,24.5,17.7,30.31,NW,311,0.0,0.0,75,0.00,,---,0.00,VWS V14.00,2013-12-31 08:10:00,
2013-12-31 02:15:00,24.4,17.6,30.31,NW,311,0.0,0.0,75,0.00,,---,0.00,VWS V14.00,2013-12-31 08:15:00,
2013-12-31 02:21:00,24.3,17.5,30.31,NW,311,0.0,0.0,75,0.00,,---,0.00,VWS V14.00,2013-12-31 08:21:00,
2013-12-31 02:26:00,24.2,17.4,30.32,NW,311,0.0,0.0,75,0.00,,---,0.00,VWS V14.00,2013-12-31 08:26:00,
2013-12-31 02:31:00,24.1,17.6,30.32,NW,311,0.0,0.0,76,0.00,,---,0.00,VWS V14.00,2013-12-31 08:31:00,
2013-12-31 02:36:00,24.0,17.5,30.32,NW,311,0.0,0.0,76,0.00,,---,0.00,VWS V14.00,2013-12-31 08:36:00,
2013-12-31 02:42:00,23.9,17.8,30.31,NW,311,0.0,0.0,77,0.00,,---,0.00,VWS V14.00,2013-12-31 08:42:00,
2013-12-31 02:48:00,23.8,17.7,30.31,NW,311,0.0,0.0,77,0.00,,---,0.00,VWS V14.00,2013-12-31 08:48:00,
2013-12-31 02:53:00,23.8,17.7,30.31,NW,311,0.0,0.0,77,0.00,,---,0.00,VWS V14.00,2013-12-31 08:53:00,
2013-12-31 02:58:00,23.7,17.3,30.31,NW,311,0.0,0.0,76,0.00,,---,0.00,VWS V14.00,2013-12-31 08:58:00,
2013-12-31 03:03:00,23.6,17.5,30.31,NW,311,0.0,0.0,77,0.00,,---,0.00,VWS V14.00,2013-12-31 09:03:00,
2013-12-31 03:08:00,23.5,17.7,30.31,NW,311,0.0,0.0,78,0.00,,---,0.00,VWS V14.00,2013-12-31 09:08:00,
2013-12-31 03:13:00,23.5,17.7,30.31,NW,311,0.0,0.0,78,0.00,,---,0.00,VWS V14.00,2013-12-31 09:13:00,
2013-12-31 03:18:00,23.4,17.6,30.31,NW,311,0.0,0.0,78,0.00,,---,0.00,VWS V14.00,2013-12-31 09:18:00,
2013-12-31 03:24:00,23.3,17.5,30.31,NW,311,0.0,0.0,78,0.00,,---,0.00,VWS V14.00,2013-12-31 09:24:00,
2013-12-31 03:29:00,23.3,17.8,30.31,NW,311,0.0,0.0,79,0.00,,---,0.00,VWS V14.00,2013-12-31 09:29:00,
2013-12-31 03:34:00,23.2,17.7,30.31,NW,311,0.0,0.0,79,0.00,,---,0.00,VWS V14.00,2013-12-31 09:34:00,
2013-12-31 03:39:00,23.1,17.6,30.31,NW,311,0.0,0.0,79,0.00,,---,0.00,VWS V14.00,2013-12-31 09:39:00,
2013-12-31 03:44:00,23.0,17.5,30.31,NW,311,0.0,0.0,79,0.00,,---,0.00,VWS V14.00,2013-12-31 09:44:00,
2013-12-31 03:50:00,23.0,17.5,30.31,NW,311,0.0,0.0,79,0.00,,---,0.00,VWS V14.00,2013-12-31 09:50:00,
2013-12-31 03:55:00,22.9,17.4,30.31,NW,311,0.0,0.0,79,0.00,,---,0.00,VWS V14.00,2013-12-31 09:55:00,
2013-12-31 04:00:00,23.0,17.8,30.31,NW,311,0.0,0.0,80,0.00,,---,0.00,VWS V14.00,2013-12-31 10:00:00,
2013-12-31 04:05:00,23.0,17.8,30.31,NW,311,0.0,0.0,80,0.00,,---,0.00,VWS V14.00,2013-12-31 10:05:00,
2013-12-31 04:10:00,23.0,17.8,30.31,NW,311,0.0,0.0,80,0.00,,---,0.00,VWS V14.00,2013-12-31 10:10:00,
2013-12-31 04:16:00,23.0,17.8,30.31,NW,311,0.0,0.0,80,0.00,,---,0.00,VWS V14.00,2013-12-31 10:16:00,
2013-12-31 04:21:00,23.0,17.8,30.31,NW,311,0.0,0.0,80,0.00,,---,0.00,VWS V14.00,2013-12-31 10:21:00,
2013-12-31 04:26:00,23.0,17.8,30.31,NW,311,0.0,0.0,80,0.00,,---,0.00,VWS V14.00,2013-12-31 10:26:00,
2013-12-31 04:31:00,23.0,17.8,30.31,NW,311,0.0,0.0,80,0.00,,---,0.00,VWS V14.00,2013-12-31 10:31:00,
2013-12-31 04:36:00,23.0,17.8,30.31,NW,311,0.0,0.0,80,0.00,,---,0.00,VWS V14.00,2013-12-31 10:36:00,
2013-12-31 04:42:00,22.9,17.7,30.31,NW,311,0.0,0.0,80,0.00,,---,0.00,VWS V14.00,2013-12-31 10:42:00,
2013-12-31 04:48:00,22.9,17.7,30.31,NW,311,0.0,0.0,80,0.00,,---,0.00,VWS V14.00,2013-12-31 10:48:00,
2013-12-31 04:53:00,22.9,17.7,30.31,NW,311,0.0,0.0,80,0.00,,---,0.00,VWS V14.00,2013-12-31 10:53:00,
2013-12-31 04:58:00,22.9,17.7,30.32,NW,311,0.0,0.0,80,0.00,,---,0.00,VWS V14.00,2013-12-31 10:58:00,
2013-12-31 05:03:00,22.9,17.7,30.32,NW,311,0.0,0.0,80,0.00,,---,0.00,VWS V14.00,2013-12-31 11:03:00,
2013-12-31 05:08:00,22.9,17.7,30.32,NW,311,0.0,0.0,80,0.00,,---,0.00,VWS V14.00,2013-12-31 11:08:00,
2013-12-31 05:13:00,22.9,17.7,30.32,NW,311,0.0,0.0,80,0.00,,---,0.00,VWS V14.00,2013-12-31 11:13:00,
2013-12-31 05:18:00,22.9,17.7,30.32,NW,311,0.0,0.0,80,0.00,,---,0.00,VWS V14.00,2013-12-31 11:18:00,
2013-12-31 05:24:00,22.9,17.7,30.32,NW,311,0.0,0.0,80,0.00,,---,0.00,VWS V14.00,2013-12-31 11:24:00,
2013-12-31 05:29:00,22.9,18.0,30.32,NW,311,0.0,0.0,81,0.00,,---,0.00,VWS V14.00,2013-12-31 11:29:00,
2013-12-31 05:34:00,22.9,18.0,30.32,NW,311,0.0,0.0,81,0.00,,---,0.00,VWS V14.00,2013-12-31 11:34:00,
2013-12-31 05:40:00,23.0,18.0,30.32,NW,311,0.0,0.0,81,0.00,,---,0.00,VWS V14.00,2013-12-31 11:40:00,
2013-12-31 05:45:00,23.0,18.0,30.31,NW,311,0.0,0.0,81,0.00,,---,0.00,VWS V14.00,2013-12-31 11:45:00,
2013-12-31 05:50:00,23.0,18.0,30.31,NW,311,0.0,0.0,81,0.00,,---,0.00,VWS V14.00,2013-12-31 11:50:00,
2013-12-31 05:55:00,23.1,18.1,30.31,NW,311,0.0,0.0,81,0.00,,---,0.00,VWS V14.00,2013-12-31 11:55:00,
2013-12-31 06:00:00,23.2,18.2,30.31,NW,311,0.0,0.0,81,0.00,,---,0.00,VWS V14.00,2013-12-31 12:00:00,
2013-12-31 06:05:00,23.1,18.1,30.31,NW,311,0.0,0.0,81,0.00,,---,0.00,VWS V14.00,2013-12-31 12:05:00,
2013-12-31 06:10:00,23.1,18.1,30.31,NW,311,0.0,0.0,81,0.00,,---,0.00,VWS V14.00,2013-12-31 12:10:00,
2013-12-31 06:15:00,23.1,17.9,30.31,NW,311,0.0,0.0,80,0.00,,---,0.00,VWS V14.00,2013-12-31 12:15:00,
2013-12-31 06:20:00,23.0,18.0,30.31,NW,311,0.0,0.0,81,0.00,,---,0.00,VWS V14.00,2013-12-31 12:20:00,
2013-12-31 06:25:00,22.9,18.0,30.31,NW,311,0.0,0.0,81,0.00,,---,0.00,VWS V14.00,2013-12-31 12:25:00,
2013-12-31 06:30:00,22.7,17.8,30.31,NW,311,0.0,0.0,81,0.00,,---,0.00,VWS V14.00,2013-12-31 12:30:00,
2013-12-31 06:35:00,22.6,17.7,30.31,NW,311,0.0,0.0,81,0.00,,---,0.00,VWS V14.00,2013-12-31 12:35:00,
2013-12-31 06:40:00,22.5,17.6,30.31,NW,311,0.0,0.0,81,0.00,,---,0.00,VWS V14.00,2013-12-31 12:40:00,
2013-12-31 06:45:00,22.4,17.5,30.31,NW,311,0.0,0.0,81,0.00,,---,0.00,VWS V14.00,2013-12-31 12:45:00,
2013-12-31 06:50:00,22.4,17.5,30.31,NW,311,0.0,0.0,81,0.00,,---,0.00,VWS V14.00,2013-12-31 12:50:00,
2013-12-31 06:55:00,22.3,17.4,30.31,NW,311,0.0,0.0,81,0.00,,---,0.00,VWS V14.00,2013-12-31 12:55:00,
2013-12-31 07:00:00,22.3,17.4,30.31,NW,311,0.0,0.0,81,0.00,,---,0.00,VWS V14.00,2013-12-31 13:00:00,
2013-12-31 07:05:00,22.4,17.5,30.31,NW,311,0.0,0.0,81,0.00,,---,0.00,VWS V14.00,2013-12-31 13:05:00,
2013-12-31 07:10:00,22.4,17.5,30.31,NW,311,0.0,0.0,81,0.00,,---,0.00,VWS V14.00,2013-12-31 13:10:00,
2013-12-31 07:15:00,22.4,17.8,30.31,NW,311,0.0,0.0,82,0.00,,---,0.00,VWS V14.00,2013-12-31 13:15:00,
2013-12-31 07:20:00,22.3,17.6,30.31,NW,311,0.0,0.0,82,0.00,,---,0.00,VWS V14.00,2013-12-31 13:20:00,
2013-12-31 07:25:00,22.2,17.5,30.31,NW,311,0.0,0.0,82,0.00,,---,0.00,VWS V14.00,2013-12-31 13:25:00,
2013-12-31 07:30:00,22.2,17.5,30.32,NW,311,0.0,0.0,82,0.00,,---,0.00,VWS V14.00,2013-12-31 13:30:00,
2013-12-31 07:35:00,22.1,17.5,30.32,NW,311,0.0,0.0,82,0.00,,---,0.00,VWS V14.00,2013-12-31 13:35:00,
2013-12-31 07:41:00,22.1,17.5,30.32,NW,311,0.0,0.0,82,0.00,,---,0.00,VWS V14.00,2013-12-31 13:41:00,
2013-12-31 07:46:00,22.0,17.4,30.32,NW,311,0.0,0.0,82,0.00,,---,0.00,VWS V14.00,2013-12-31 13:46:00,
2013-12-31 07:51:00,22.0,17.4,30.32,NW,311,0.0,0.0,82,0.00,,---,0.00,VWS V14.00,2013-12-31 13:51:00,
2013-12-31 07:57:00,22.1,17.7,30.32,NW,311,0.0,0.0,83,0.00,,---,0.00,VWS V14.00,2013-12-31 13:57:00,
2013-12-31 08:02:00,22.2,17.8,30.32,NW,311,0.0,0.0,83,0.00,,---,0.00,VWS V14.00,2013-12-31 14:02:00,
2013-12-31 08:07:00,22.4,18.0,30.32,NW,311,0.0,0.0,83,0.00,,---,0.00,VWS V14.00,2013-12-31 14:07:00,
2013-12-31 08:13:00,23.2,19.1,30.32,NW,311,0.0,0.0,84,0.00,,---,0.00,VWS V14.00,2013-12-31 14:13:00,
2013-12-31 08:18:00,23.9,19.5,30.32,NW,311,0.0,0.0,83,0.00,,---,0.00,VWS V14.00,2013-12-31 14:18:00,
2013-12-31 08:24:00,24.3,19.6,30.32,NW,311,0.0,0.0,82,0.00,,---,0.00,VWS V14.00,2013-12-31 14:24:00,
2013-12-31 08:30:00,24.7,19.7,30.32,NW,311,0.0,0.0,81,0.00,,---,0.00,VWS V14.00,2013-12-31 14:30:00,
2013-12-31 08:35:00,25.1,20.1,30.32,NW,311,0.0,0.0,81,0.00,,---,0.00,VWS V14.00,2013-12-31 14:35:00,
2013-12-31 08:40:00,25.9,20.6,30.32,NW,311,0.0,0.0,80,0.00,,---,0.00,VWS V14.00,2013-12-31 14:40:00,
2013-12-31 08:45:00,26.7,21.4,30.32,NW,311,0.0,0.0,80,0.00,,---,0.00,VWS V14.00,2013-12-31 14:45:00,
2013-12-31 08:50:00,27.8,21.9,30.32,NW,311,0.0,0.0,78,0.00,,---,0.00,VWS V14.00,2013-12-31 14:50:00,
2013-12-31 08:55:00,28.8,22.2,30.32,NW,311,0.0,0.0,76,0.00,,---,0.00,VWS V14.00,2013-12-31 14:55:00,
2013-12-31 09:00:00,29.5,22.2,30.32,NW,311,0.0,0.0,74,0.00,,---,0.00,VWS V14.00,2013-12-31 15:00:00,
2013-12-31 09:05:00,30.5,22.6,30.32,NW,311,0.0,0.0,72,0.00,,---,0.00,VWS V14.00,2013-12-31 15:05:00,
2013-12-31 09:10:00,31.2,22.6,30.32,NW,311,0.0,0.0,70,0.00,,---,0.00,VWS V14.00,2013-12-31 15:10:00,
2013-12-31 09:15:00,31.8,22.5,30.33,NW,311,0.0,0.0,68,0.00,,---,0.00,VWS V14.00,2013-12-31 15:15:00,
2013-12-31 09:20:00,32.5,22.8,30.33,NW,311,0.0,0.0,67,0.00,,---,0.00,VWS V14.00,2013-12-31 15:20:00,
2013-12-31 09:25:00,33.3,22.8,30.33,NW,311,0.0,0.0,65,0.00,,---,0.00,VWS V14.00,2013-12-31 15:25:00,
2013-12-31 09:30:00,34.1,22.8,30.33,NW,311,0.0,0.0,63,0.00,,---,0.00,VWS V14.00,2013-12-31 15:30:00,
2013-12-31 09:35:00,34.7,23.4,30.33,NW,311,0.0,0.0,63,0.00,,---,0.00,VWS V14.00,2013-12-31 15:35:00,
2013-12-31 09:41:00,35.7,23.6,30.33,NW,311,0.0,0.0,61,0.00,,---,0.00,VWS V14.00,2013-12-31 15:41:00,
2013-12-31 09:47:00,36.5,24.0,30.33,NW,311,0.0,0.0,60,0.00,,---,0.00,VWS V14.00,2013-12-31 15:47:00,
2013-12-31 09:52:00,37.3,23.9,30.33,NW,311,0.0,0.0,58,0.00,,---,0.00,VWS V14.00,2013-12-31 15:52:00,
2013-12-31 09:58:00,37.7,23.9,30.33,NW,311,0.0,0.0,57,0.00,,---,0.00,VWS V14.00,2013-12-31 15:58:00,
2013-12-31 10:03:00,38.0,24.5,30.33,NW,311,0.0,0.0,58,0.00,,---,0.00,VWS V14.00,2013-12-31 16:03:00,
2013-12-31 10:08:00,38.7,24.8,30.33,NW,311,0.0,0.0,57,0.00,,---,0.00,VWS V14.00,2013-12-31 16:08:00,
2013-12-31 10:13:00,39.1,24.7,30.32,NW,311,0.0,0.0,56,0.00,,---,0.00,VWS V14.00,2013-12-31 16:13:00,
2013-12-31 10:18:00,39.5,25.1,30.32,NW,311,0.0,0.0,56,0.00,,---,0.00,VWS V14.00,2013-12-31 16:18:00,
2013-12-31 10:24:00,40.2,25.8,30.32,NW,311,0.0,0.0,56,0.00,,---,0.00,VWS V14.00,2013-12-31 16:24:00,
2013-12-31 10:30:00,40.9,25.5,30.33,NW,312,0.0,0.0,54,0.00,,---,0.00,VWS V14.00,2013-12-31 16:30:00,
2013-12-31 10:35:00,41.1,25.7,30.33,NW,315,0.0,0.0,54,0.00,,---,0.00,VWS V14.00,2013-12-31 16:35:00,
2013-12-31 10:40:00,41.7,25.9,30.33,ESE,107,0.0,0.0,53,0.00,,---,0.00,VWS V14.00,2013-12-31 16:40:00,
2013-12-31 10:45:00,42.5,26.6,30.32,East,89,0.0,0.0,53,0.00,,---,0.00,VWS V14.00,2013-12-31 16:45:00,
2013-12-31 10:51:00,43.4,27.0,30.32,East,87,0.0,0.0,52,0.00,,---,0.00,VWS V14.00,2013-12-31 16:51:00,
2013-12-31 10:56:00,44.6,27.1,30.32,East,87,0.0,0.0,50,0.00,,---,0.00,VWS V14.00,2013-12-31 16:56:00,
2013-12-31 11:01:00,45.4,26.9,30.32,East,94,0.0,0.0,48,0.00,,---,0.00,VWS V14.00,2013-12-31 17:01:00,
2013-12-31 11:06:00,45.3,26.8,30.32,East,88,0.0,0.0,48,0.00,,---,0.00,VWS V14.00,2013-12-31 17:06:00,
2013-12-31 11:11:00,45.6,27.6,30.31,East,88,0.0,0.0,49,0.00,,---,0.00,VWS V14.00,2013-12-31 17:11:00,
2013-12-31 11:16:00,46.1,28.0,30.31,East,88,0.0,0.0,49,0.00,,---,0.00,VWS V14.00,2013-12-31 17:16:00,
2013-12-31 11:21:00,47.0,28.3,30.31,East,87,0.0,0.0,48,0.00,,---,0.00,VWS V14.00,2013-12-31 17:21:00,
2013-12-31 11:26:00,48.0,28.8,30.30,East,87,0.0,0.0,47,0.00,,---,0.00,VWS V14.00,2013-12-31 17:26:00,
2013-12-31 11:31:00,48.8,28.4,30.30,East,83,0.0,0.0,45,0.00,,---,0.00,VWS V14.00,2013-12-31 17:31:00,
2013-12-31 11:36:00,48.3,27.4,30.30,East,91,0.0,0.0,44,0.00,,---,0.00,VWS V14.00,2013-12-31 17:36:00,
2013-12-31 11:41:00,48.1,28.3,30.29,East,91,0.0,0.0,46,0.00,,---,0.00,VWS V14.00,2013-12-31 17:41:00,
2013-12-31 11:46:00,48.4,28.6,30.29,South,172,0.0,0.0,46,0.00,,---,0.00,VWS V14.00,2013-12-31 17:46:00,
2013-12-31 11:51:00,49.0,28.6,30.29,South,169,0.0,0.0,45,0.00,,---,0.00,VWS V14.00,2013-12-31 17:51:00,
2013-12-31 11:56:00,49.6,28.0,30.29,ESE,114,0.0,3.0,43,0.00,,---,0.00,VWS V14.00,2013-12-31 17:56:00,
2013-12-31 12:02:00,49.9,28.3,30.29,ENE,72,0.0,0.0,43,0.00,,---,0.00,VWS V14.00,2013-12-31 18:02:00,
2013-12-31 12:07:00,50.3,28.1,30.29,East,80,0.0,1.0,42,0.00,,---,0.00,VWS V14.00,2013-12-31 18:07:00,
2013-12-31 12:13:00,50.9,28.1,30.27,SE,127,0.0,0.0,41,0.00,,---,0.00,VWS V14.00,2013-12-31 18:13:00,
2013-12-31 12:18:00,51.3,28.4,30.27,SSE,163,0.0,0.0,41,0.00,,---,0.00,VWS V14.00,2013-12-31 18:18:00,
2013-12-31 12:23:00,51.9,27.7,30.27,ESE,121,0.0,0.0,39,0.00,,---,0.00,VWS V14.00,2013-12-31 18:23:00,
2013-12-31 12:28:00,52.3,28.1,30.26,ESE,115,0.0,1.0,39,0.00,,---,0.00,VWS V14.00,2013-12-31 18:28:00,
2013-12-31 12:33:00,52.8,27.9,30.26,ESE,123,0.0,0.0,38,0.00,,---,0.00,VWS V14.00,2013-12-31 18:33:00,
2013-12-31 12:39:00,53.2,27.6,30.26,ESE,121,0.0,0.0,37,0.00,,---,0.00,VWS V14.00,2013-12-31 18:39:00,
2013-12-31 12:44:00,53.7,27.4,30.24,SE,139,0.0,0.0,36,0.00,,---,0.00,VWS V14.00,2013-12-31 18:44:00,
2013-12-31 12:49:00,53.7,27.4,30.24,ENE,77,0.0,0.0,36,0.00,,---,0.00,VWS V14.00,2013-12-31 18:49:00,
2013-12-31 12:54:00,53.9,27.6,30.24,ENE,75,0.0,0.0,36,0.00,,---,0.00,VWS V14.00,2013-12-31 18:54:00,
2013-12-31 12:59:00,54.2,27.9,30.24,East,82,0.0,0.0,36,0.00,,---,0.00,VWS V14.00,2013-12-31 18:59:00,
2013-12-31 13:04:00,54.3,27.2,30.24,East,82,0.0,0.0,35,0.00,,---,0.00,VWS V14.00,2013-12-31 19:04:00,
2013-12-31 13:09:00,54.4,26.6,30.24,East,91,0.0,0.0,34,0.00,,---,0.00,VWS V14.00,2013-12-31 19:09:00,
2013-12-31 13:15:00,54.3,26.5,30.23,East,79,0.0,1.0,34,0.00,,---,0.00,VWS V14.00,2013-12-31 19:15:00,
2013-12-31 13:20:00,53.9,25.5,30.23,ENE,73,0.0,0.0,33,0.00,,---,0.00,VWS V14.00,2013-12-31 19:20:00,
2013-12-31 13:26:00,53.8,26.1,30.22,East,101,0.0,1.0,34,0.00,,---,0.00,VWS V14.00,2013-12-31 19:26:00,
2013-12-31 13:31:00,53.9,26.2,30.22,ESE,110,0.0,0.0,34,0.00,,---,0.00,VWS V14.00,2013-12-31 19:31:00,
2013-12-31 13:36:00,54.0,24.8,30.22,ESE,113,0.0,0.0,32,0.00,,---,0.00,VWS V14.00,2013-12-31 19:36:00,
2013-12-31 13:41:00,54.2,25.0,30.21,ENE,57,0.0,0.0,32,0.00,,---,0.00,VWS V14.00,2013-12-31 19:41:00,
2013-12-31 13:46:00,54.5,23.7,30.21,SE,127,0.0,0.0,30,0.00,,---,0.00,VWS V14.00,2013-12-31 19:46:00,
2013-12-31 13:51:00,54.6,23.8,30.21,ESE,106,0.0,0.0,30,0.00,,---,0.00,VWS V14.00,2013-12-31 19:51:00,
2013-12-31 13:57:00,55.0,23.4,30.20,SE,134,0.0,0.0,29,0.00,,---,0.00,VWS V14.00,2013-12-31 19:57:00,
2013-12-31 14:02:00,55.2,22.7,30.20,East,82,0.0,1.0,28,0.00,,---,0.00,VWS V14.00,2013-12-31 20:02:00,
2013-12-31 14:07:00,55.3,21.9,30.20,ESE,104,7.0,7.0,27,0.00,,---,0.00,VWS V14.00,2013-12-31 20:07:00,
2013-12-31 14:12:00,55.3,22.8,30.18,East,86,0.0,0.0,28,0.00,,---,0.00,VWS V14.00,2013-12-31 20:12:00,
2013-12-31 14:17:00,55.5,22.1,30.18,East,85,0.0,1.0,27,0.00,,---,0.00,VWS V14.00,2013-12-31 20:17:00,
2013-12-31 14:22:00,55.6,22.2,30.18,East,86,0.0,0.0,27,0.00,,---,0.00,VWS V14.00,2013-12-31 20:22:00,
2013-12-31 14:27:00,55.8,22.3,30.17,ESE,105,4.0,4.0,27,0.00,,---,0.00,VWS V14.00,2013-12-31 20:27:00,
2013-12-31 14:32:00,55.9,22.4,30.17,ENE,75,0.0,0.0,27,0.00,,---,0.00,VWS V14.00,2013-12-31 20:32:00,
2013-12-31 14:37:00,55.9,21.5,30.17,ESE,116,0.0,1.0,26,0.00,,---,0.00,VWS V14.00,2013-12-31 20:37:00,
2013-12-31 14:42:00,56.0,21.6,30.17,ESE,102,0.0,0.0,26,0.00,,---,0.00,VWS V14.00,2013-12-31 20:42:00,
2013-12-31 14:47:00,56.1,20.8,30.17,ESE,105,0.0,0.0,25,0.00,,---,0.00,VWS V14.00,2013-12-31 20:47:00,
2013-12-31 14:52:00,56.0,20.7,30.17,East,87,0.0,0.0,25,0.00,,---,0.00,VWS V14.00,2013-12-31 20:52:00,
2013-12-31 14:57:00,55.9,21.5,30.17,SE,129,0.0,0.0,26,0.00,,---,0.00,VWS V14.00,2013-12-31 20:57:00,
2013-12-31 15:02:00,55.8,21.5,30.17,SSE,158,0.0,0.0,26,0.00,,---,0.00,VWS V14.00,2013-12-31 21:02:00,
2013-12-31 15:07:00,55.7,21.4,30.17,East,84,0.0,0.0,26,0.00,,---,0.00,VWS V14.00,2013-12-31 21:07:00,
2013-12-31 15:13:00,55.7,21.4,30.16,ENE,65,0.0,0.0,26,0.00,,---,0.00,VWS V14.00,2013-12-31 21:13:00,
2013-12-31 15:18:00,55.6,22.2,30.16,South,170,0.0,0.0,27,0.00,,---,0.00,VWS V14.00,2013-12-31 21:18:00,
2013-12-31 15:23:00,55.6,21.3,30.16,ESE,109,0.0,0.0,26,0.00,,---,0.00,VWS V14.00,2013-12-31 21:23:00,
2013-12-31 15:28:00,55.5,21.2,30.16,East,101,0.0,0.0,26,0.00,,---,0.00,VWS V14.00,2013-12-31 21:28:00,
2013-12-31 15:33:00,55.5,22.1,30.16,East,96,0.0,0.0,27,0.00,,---,0.00,VWS V14.00,2013-12-31 21:33:00,
2013-12-31 15:38:00,55.5,21.2,30.16,SSE,168,0.0,0.0,26,0.00,,---,0.00,VWS V14.00,2013-12-31 21:38:00,
2013-12-31 15:43:00,55.4,21.1,30.16,ENE,76,0.0,0.0,26,0.00,,---,0.00,VWS V14.00,2013-12-31 21:43:00,
2013-12-31 15:48:00,55.3,21.0,30.16,ESE,118,0.0,0.0,26,0.00,,---,0.00,VWS V14.00,2013-12-31 21:48:00,
2013-12-31 15:53:00,55.1,20.9,30.16,NE,55,0.0,0.0,26,0.00,,---,0.00,VWS V14.00,2013-12-31 21:53:00,
2013-12-31 15:58:00,55.1,20.9,30.16,East,87,0.0,0.0,26,0.00,,---,0.00,VWS V14.00,2013-12-31 21:58:00,
2013-12-31 16:04:00,54.9,20.7,30.16,East,90,0.0,0.0,26,0.00,,---,0.00,VWS V14.00,2013-12-31 22:04:00,
2013-12-31 16:09:00,54.8,21.5,30.16,ESE,114,0.0,0.0,27,0.00,,---,0.00,VWS V14.00,2013-12-31 22:09:00,
2013-12-31 16:14:00,54.7,21.4,30.15,ESE,108,0.0,0.0,27,0.00,,---,0.00,VWS V14.00,2013-12-31 22:14:00,
2013-12-31 16:20:00,54.5,21.2,30.15,ESE,106,0.0,0.0,27,0.00,,---,0.00,VWS V14.00,2013-12-31 22:20:00,
2013-12-31 16:25:00,54.2,21.0,30.15,East,91,0.0,0.0,27,0.00,,---,0.00,VWS V14.00,2013-12-31 22:25:00,
2013-12-31 16:30:00,54.1,20.9,30.16,ENE,63,0.0,0.0,27,0.00,,---,0.00,VWS V14.00,2013-12-31 22:30:00,
2013-12-31 16:35:00,53.8,20.6,30.16,SE,128,0.0,0.0,27,0.00,,---,0.00,VWS V14.00,2013-12-31 22:35:00,
2013-12-31 16:40:00,53.5,20.4,30.16,East,94,0.0,0.0,27,0.00,,---,0.00,VWS V14.00,2013-12-31 22:40:00,
2013-12-31 16:45:00,53.3,21.0,30.15,East,98,0.0,0.0,28,0.00,,---,0.00,VWS V14.00,2013-12-31 22:45:00,
2013-12-31 16:50:00,53.1,20.9,30.15,ENE,77,0.0,0.0,28,0.00,,---,0.00,VWS V14.00,2013-12-31 22:50:00,
2013-12-31 16:55:00,52.9,20.7,30.15,ENE,76,0.0,0.0,28,0.00,,---,0.00,VWS V14.00,2013-12-31 22:55:00,
2013-12-31 17:00:00,52.7,21.4,30.15,SE,127,0.0,0.0,29,0.00,,---,0.00,VWS V14.00,2013-12-31 23:00:00,
2013-12-31 17:05:00,52.4,21.1,30.15,ESE,122,0.0,0.0,29,0.00,,---,0.00,VWS V14.00,2013-12-31 23:05:00,
2013-12-31 17:10:00,52.2,20.9,30.15,ESE,118,0.0,0.0,29,0.00,,---,0.00,VWS V14.00,2013-12-31 23:10:00,
2013-12-31 17:15:00,51.9,20.7,30.14,East,79,0.0,0.0,29,0.00,,---,0.00,VWS V14.00,2013-12-31 23:15:00,
2013-12-31 17:21:00,51.7,21.3,30.14,WNW,294,0.0,1.0,30,0.00,,---,0.00,VWS V14.00,2013-12-31 23:21:00,
2013-12-31 17:26:00,51.5,21.1,30.14,East,82,0.0,0.0,30,0.00,,---,0.00,VWS V14.00,2013-12-31 23:26:00,
2013-12-31 17:31:00,51.3,21.7,30.14,East,83,0.0,0.0,31,0.00,,---,0.00,VWS V14.00,2013-12-31 23:31:00,
2013-12-31 17:36:00,51.0,21.5,30.14,East,83,0.0,0.0,31,0.00,,---,0.00,VWS V14.00,2013-12-31 23:36:00,
2013-12-31 17:41:00,50.7,21.9,30.15,East,83,0.0,0.0,32,0.00,,---,0.00,VWS V14.00,2013-12-31 23:41:00,
2013-12-31 17:46:00,50.3,21.6,30.15,East,83,0.0,0.0,32,0.00,,---,0.00,VWS V14.00,2013-12-31 23:46:00,
2013-12-31 17:51:00,49.9,22.0,30.15,East,83,0.0,0.0,33,0.00,,---,0.00,VWS V14.00,2013-12-31 23:51:00,
2013-12-31 17:56:00,49.5,21.6,30.14,East,96,0.0,0.0,33,0.00,,---,0.00,VWS V14.00,2013-12-31 23:56:00,
2013-12-31 18:02:00,49.1,22.0,30.14,ESE,116,0.0,0.0,34,0.00,,---,0.00,VWS V14.00,2014-01-01 00:02:00,
2013-12-31 18:07:00,48.8,22.4,30.14,ENE,69,0.0,0.0,35,0.00,,---,0.00,VWS V14.00,2014-01-01 00:07:00,
2013-12-31 18:12:00,48.6,22.2,30.15,SE,127,0.0,0.0,35,0.00,,---,0.00,VWS V14.00,2014-01-01 00:12:00,
2013-12-31 18:17:00,48.3,22.6,30.15,ESE,122,0.0,0.0,36,0.00,,---,0.00,VWS V14.00,2014-01-01 00:17:00,
2013-12-31 18:22:00,48.1,22.4,30.15,ESE,122,0.0,0.0,36,0.00,,---,0.00,VWS V14.00,2014-01-01 00:22:00,
2013-12-31 18:27:00,47.9,22.9,30.15,ESE,120,0.0,0.0,37,0.00,,---,0.00,VWS V14.00,2014-01-01 00:27:00,
2013-12-31 18:32:00,47.5,23.2,30.15,East,98,0.0,0.0,38,0.00,,---,0.00,VWS V14.00,2014-01-01 00:32:00,
2013-12-31 18:37:00,47.3,23.0,30.15,East,101,0.0,0.0,38,0.00,,---,0.00,VWS V14.00,2014-01-01 00:37:00,
2013-12-31 18:42:00,47.2,23.5,30.15,ESE,103,0.0,0.0,39,0.00,,---,0.00,VWS V14.00,2014-01-01 00:42:00,
2013-12-31 18:47:00,47.0,24.0,30.15,ESE,102,0.0,0.0,40,0.00,,---,0.00,VWS V14.00,2014-01-01 00:47:00,
2013-12-31 18:52:00,46.7,23.7,30.15,ESE,106,0.0,0.0,40,0.00,,---,0.00,VWS V14.00,2014-01-01 00:52:00,
2013-12-31 18:58:00,46.5,24.1,30.15,ESE,105,0.0,0.0,41,0.00,,---,0.00,VWS V14.00,2014-01-01 00:58:00,
2013-12-31 19:03:00,46.2,23.8,30.15,ESE,103,0.0,0.0,41,0.00,,---,0.00,VWS V14.00,2014-01-01 01:03:00,
2013-12-31 19:08:00,46.0,24.2,30.15,ESE,103,0.0,0.0,42,0.00,,---,0.00,VWS V14.00,2014-01-01 01:08:00,
2013-12-31 19:13:00,45.8,24.6,30.15,ESE,103,0.0,0.0,43,0.00,,---,0.00,VWS V14.00,2014-01-01 01:13:00,
2013-12-31 19:18:00,45.6,24.4,30.15,ESE,103,0.0,0.0,43,0.00,,---,0.00,VWS V14.00,2014-01-01 01:18:00,
2013-12-31 19:23:00,45.4,24.8,30.15,ESE,103,0.0,0.0,44,0.00,,---,0.00,VWS V14.00,2014-01-01 01:23:00,
2013-12-31 19:28:00,45.3,24.7,30.15,ESE,103,0.0,0.0,44,0.00,,---,0.00,VWS V14.00,2014-01-01 01:28:00,
2013-12-31 19:33:00,45.2,24.6,30.15,ESE,103,0.0,0.0,44,0.00,,---,0.00,VWS V14.00,2014-01-01 01:33:00,
2013-12-31 19:38:00,45.0,24.4,30.15,ESE,104,0.0,0.0,44,0.00,,---,0.00,VWS V14.00,2014-01-01 01:38:00,
2013-12-31 19:43:00,45.0,24.4,30.14,East,91,0.0,0.0,44,0.00,,---,0.00,VWS V14.00,2014-01-01 01:43:00,
2013-12-31 19:48:00,44.9,24.9,30.14,ENE,70,0.0,0.0,45,0.00,,---,0.00,VWS V14.00,2014-01-01 01:48:00,
2013-12-31 19:53:00,44.7,24.7,30.14,ENE,69,0.0,0.0,45,0.00,,---,0.00,VWS V14.00,2014-01-01 01:53:00,
2013-12-31 19:58:00,44.6,25.1,30.14,SE,131,0.0,0.0,46,0.00,,---,0.00,VWS V14.00,2014-01-01 01:58:00,
2013-12-31 20:03:00,44.5,25.0,30.14,SE,131,0.0,0.0,46,0.00,,---,0.00,VWS V14.00,2014-01-01 02:03:00,
2013-12-31 20:09:00,44.5,25.0,30.14,East,92,0.0,0.0,46,0.00,,---,0.00,VWS V14.00,2014-01-01 02:09:00,
2013-12-31 20:14:00,44.5,25.5,30.14,ESE,103,0.0,0.0,47,0.00,,---,0.00,VWS V14.00,2014-01-01 02:14:00,
2013-12-31 20:19:00,44.3,25.4,30.14,East,97,0.0,0.0,47,0.00,,---,0.00,VWS V14.00,2014-01-01 02:19:00,
2013-12-31 20:25:00,44.2,25.3,30.14,East,96,0.0,0.0,47,0.00,,---,0.00,VWS V14.00,2014-01-01 02:25:00,
2013-12-31 20:30:00,44.0,25.6,30.14,East,96,0.0,0.0,48,0.00,,---,0.00,VWS V14.00,2014-01-01 02:30:00,
2013-12-31 20:35:00,43.8,25.4,30.14,East,96,0.0,0.0,48,0.00,,---,0.00,VWS V14.00,2014-01-01 02:35:00,
2013-12-31 20:40:00,43.5,25.6,30.14,East,96,0.0,0.0,49,0.00,,---,0.00,VWS V14.00,2014-01-01 02:40:00,
2013-12-31 20:45:00,43.4,25.5,30.14,East,96,0.0,0.0,49,0.00,,---,0.00,VWS V14.00,2014-01-01 02:45:00,
2013-12-31 20:50:00,43.3,25.4,30.14,East,96,0.0,0.0,49,0.00,,---,0.00,VWS V14.00,2014-01-01 02:50:00,
2013-12-31 20:55:00,43.2,25.8,30.14,East,96,0.0,0.0,50,0.00,,---,0.00,VWS V14.00,2014-01-01 02:55:00,
2013-12-31 21:00:00,43.1,26.2,30.14,East,96,0.0,0.0,51,0.00,,---,0.00,VWS V14.00,2014-01-01 03:00:00,
2013-12-31 21:05:00,43.0,26.1,30.14,East,97,0.0,0.0,51,0.00,,---,0.00,VWS V14.00,2014-01-01 03:05:00,
2013-12-31 21:10:00,42.9,26.0,30.14,ESE,103,0.0,0.0,51,0.00,,---,0.00,VWS V14.00,2014-01-01 03:10:00,
2013-12-31 21:15:00,42.8,26.4,30.12,East,101,0.0,0.0,52,0.00,,---,0.00,VWS V14.00,2014-01-01 03:15:00,
2013-12-31 21:20:00,42.7,26.3,30.12,ESE,102,0.0,0.0,52,0.00,,---,0.00,VWS V14.00,2014-01-01 03:20:00,
2013-12-31 21:25:00,42.6,26.2,30.12,East,101,0.0,0.0,52,0.00,,---,0.00,VWS V14.00,2014-01-01 03:25:00,
2013-12-31 21:30:00,42.5,26.1,30.13,South,170,0.0,0.0,52,0.00,,---,0.00,VWS V14.00,2014-01-01 03:30:00,
2013-12-31 21:35:00,42.4,26.5,30.13,ESE,116,0.0,0.0,53,0.00,,---,0.00,VWS V14.00,2014-01-01 03:35:00,
2013-12-31 21:40:00,42.3,26.4,30.13,ESE,116,0.0,0.0,53,0.00,,---,0.00,VWS V14.00,2014-01-01 03:40:00,
2013-12-31 21:45:00,42.2,26.8,30.13,South,171,0.0,0.0,54,0.00,,---,0.00,VWS V14.00,2014-01-01 03:45:00,
2013-12-31 21:50:00,42.1,26.7,30.13,SE,127,0.0,0.0,54,0.00,,---,0.00,VWS V14.00,2014-01-01 03:50:00,
2013-12-31 21:55:00,41.9,26.5,30.13,NE,37,0.0,0.0,54,0.00,,---,0.00,VWS V14.00,2014-01-01 03:55:00,
2013-12-31 22:00:00,41.8,26.8,30.13,NE,37,0.0,0.0,55,0.00,,---,0.00,VWS V14.00,2014-01-01 04:00:00,
2013-12-31 22:05:00,41.7,26.7,30.13,East,97,0.0,0.0,55,0.00,,---,0.00,VWS V14.00,2014-01-01 04:05:00,
2013-12-31 22:10:00,41.6,27.1,30.13,East,97,0.0,0.0,56,0.00,,---,0.00,VWS V14.00,2014-01-01 04:10:00,
2013-12-31 22:15:00,41.4,26.9,30.14,East,97,0.0,0.0,56,0.00,,---,0.00,VWS V14.00,2014-01-01 04:15:00,
2013-12-31 22:20:00,41.4,26.9,30.14,East,97,0.0,0.0,56,0.00,,---,0.00,VWS V14.00,2014-01-01 04:20:00,
2013-12-31 22:25:00,41.3,27.2,30.14,SE,137,0.0,0.0,57,0.00,,---,0.00,VWS V14.00,2014-01-01 04:25:00,
2013-12-31 22:30:00,41.2,27.1,30.14,SE,136,0.0,0.0,57,0.00,,---,0.00,VWS V14.00,2014-01-01 04:30:00,
2013-12-31 22:35:00,41.1,27.0,30.14,SE,136,0.0,0.0,57,0.00,,---,0.00,VWS V14.00,2014-01-01 04:35:00,
2013-12-31 22:40:00,40.9,26.9,30.14,SE,136,0.0,0.0,57,0.00,,---,0.00,VWS V14.00,2014-01-01 04:40:00,
2013-12-31 22:45:00,40.7,27.1,30.14,SE,136,0.0,0.0,58,0.00,,---,0.00,VWS V14.00,2014-01-01 04:45:00,
2013-12-31 22:50:00,40.5,26.9,30.14,SE,135,0.0,0.0,58,0.00,,---,0.00,VWS V14.00,2014-01-01 04:50:00,
2013-12-31 22:55:00,40.4,27.2,30.14,SE,135,0.0,0.0,59,0.00,,---,0.00,VWS V14.00,2014-01-01 04:55:00,
2013-12-31 23:00:00,40.2,27.0,30.14,SE,134,0.0,0.0,59,0.00,,---,0.00,VWS V14.00,2014-01-01 05:00:00,
2013-12-31 23:01:00,40.2,27.0,30.14,SE,134,0.0,0.0,59,0.00,,---,0.00,VWS V14.00,2014-01-01 05:01:00,
2013-12-31 23:02:00,40.2,27.0,30.14,SE,134,0.0,0.0,59,0.00,,---,0.00,VWS V14.00,2014-01-01 05:02:00,
2013-12-31 23:03:00,40.2,27.0,30.14,SE,134,0.0,0.0,59,0.00,,---,0.00,VWS V14.00,2014-01-01 05:03:00,
2013-12-31 23:04:00,40.1,26.9,30.14,SE,134,0.0,0.0,59,0.00,,---,0.00,VWS V14.00,2014-01-01 05:04:00,
2013-12-31 23:09:00,40.0,26.8,30.14,SE,134,0.0,0.0,59,0.00,,---,0.00,VWS V14.00,2014-01-01 05:09:00,
2013-12-31 23:10:00,40.0,26.8,30.14,SE,134,0.0,0.0,59,0.00,,---,0.00,VWS V14.00,2014-01-01 05:10:00,
2013-12-31 23:15:00,39.8,27.1,30.14,SE,134,0.0,0.0,60,0.00,,---,0.00,VWS V14.00,2014-01-01 05:15:00,
2013-12-31 23:18:00,39.8,27.1,30.14,SE,134,0.0,0.0,60,0.00,,---,0.00,VWS V14.00,2014-01-01 05:18:00,
2013-12-31 23:23:00,39.7,27.0,30.14,SE,134,0.0,0.0,60,0.00,,---,0.00,VWS V14.00,2014-01-01 05:23:00,
2013-12-31 23:28:00,39.5,26.8,30.12,SE,134,0.0,0.0,60,0.00,,---,0.00,VWS V14.00,2014-01-01 05:28:00,
2013-12-31 23:33:00,39.3,27.0,30.12,SE,134,0.0,0.0,61,0.00,,---,0.00,VWS V14.00,2014-01-01 05:33:00,
2013-12-31 23:38:00,39.1,26.8,30.12,SE,134,0.0,0.0,61,0.00,,---,0.00,VWS V14.00,2014-01-01 05:38:00,
2013-12-31 23:44:00,38.9,26.6,30.12,SE,134,0.0,0.0,61,0.00,,---,0.00,VWS V14.00,2014-01-01 05:44:00,
2013-12-31 23:47:00,38.8,26.9,30.12,SE,134,0.0,0.0,62,0.00,,---,0.00,VWS V14.00,2014-01-01 05:47:00,
2013-12-31 23:52:00,38.7,26.8,30.12,SE,134,0.0,0.0,62,0.00,,---,0.00,VWS V14.00,2014-01-01 05:52:00,
2013-12-31 23:58:00,38.4,26.5,30.12,SE,134,0.0,0.0,62,0.00,,---,0.00,VWS V14.00,2014-01-01 05:58:00,